Estación de Pirque
Ultimos registro cada 15 minutos 46
| N° | Estación | Fecha / Hora | Temperatura | Humedad | Lluvia | Velocidad | Dirección | Radiación | Presion |
| 46 | Pirque | 05-05-2026 11:15 | 20,5 | 42,8 | 0 | 0 | 251 | 260,6 | 936 |
| 45 | Pirque | 05-05-2026 11:00 | 18,5 | 46,5 | 0 | 0 | 253 | 239,4 | 936,7 |
| 44 | Pirque | 05-05-2026 10:45 | 18,7 | 45,9 | 0 | 0 | 257 | 291,9 | 936,7 |
| 43 | Pirque | 05-05-2026 10:30 | 17,6 | 50 | 0 | 0 | 250 | 469,4 | 936,6 |
| 42 | Pirque | 05-05-2026 10:15 | 16,6 | 55,3 | 0 | 0 | 261 | 246,9 | 936,9 |
| 41 | Pirque | 05-05-2026 10:00 | 15,4 | 62,1 | 0 | 0 | 285 | 218,1 | 936,9 |
| 40 | Pirque | 05-05-2026 09:45 | 14,6 | 62,6 | 0 | 0 | 291 | 170,6 | 936,9 |
| 39 | Pirque | 05-05-2026 09:30 | 13,6 | 65,9 | 0 | 0 | 291 | 131,9 | 937,4 |
| 38 | Pirque | 05-05-2026 09:15 | 13 | 68 | 0 | 0 | 291 | 83,1 | 937,1 |
| 37 | Pirque | 05-05-2026 09:00 | 12 | 72,1 | 0 | 0 | 289 | 90,6 | 937,3 |
| 36 | Pirque | 05-05-2026 08:45 | 10,9 | 78,1 | 0 | 0 | 286 | 93,1 | 937,6 |
| 35 | Pirque | 05-05-2026 08:30 | 10 | 81,5 | 0 | 0 | 248 | 51,9 | 938 |
| 34 | Pirque | 05-05-2026 08:15 | 9,3 | 82,8 | 0 | 0 | 248 | 28,1 | 938,1 |
| 33 | Pirque | 05-05-2026 08:00 | 9 | 82,8 | 0 | 0 | 247 | 14,4 | 938 |
| 32 | Pirque | 05-05-2026 07:45 | 8,8 | 82,7 | 0 | 0 | 246 | 6,9 | 937,7 |
| 31 | Pirque | 05-05-2026 07:30 | 8,6 | 83,6 | 0 | 0 | 246 | 0,6 | 938,3 |
| 30 | Pirque | 05-05-2026 07:15 | 8,9 | 81,4 | 0 | 0 | 246 | 0,6 | 938,2 |
| 29 | Pirque | 05-05-2026 07:00 | 9,4 | 79,1 | 0 | 0 | 246 | 0,6 | 938,1 |
| 28 | Pirque | 05-05-2026 06:45 | 8,8 | 83,3 | 0 | 0 | 246 | 0,6 | 938,2 |
| 27 | Pirque | 05-05-2026 06:30 | 8,8 | 82,7 | 0 | 0 | 246 | 0,6 | 937,9 |
| 26 | Pirque | 05-05-2026 06:15 | 8,3 | 84,6 | 0 | 0 | 246 | 0,6 | 937,8 |
| 25 | Pirque | 05-05-2026 06:00 | 8,3 | 83,7 | 0 | 0 | 246 | 0,6 | 937,4 |
| 24 | Pirque | 05-05-2026 05:45 | 8,3 | 83,9 | 0 | 0 | 246 | 0,6 | 937,5 |
| 23 | Pirque | 05-05-2026 05:30 | 8,2 | 83,6 | 0 | 0 | 246 | 0,6 | 937,1 |
| 22 | Pirque | 05-05-2026 05:15 | 7,8 | 85,8 | 0 | 0 | 246 | 0,6 | 937 |
| 21 | Pirque | 05-05-2026 05:00 | 8,1 | 84,1 | 0 | 0 | 246 | 0,6 | 936,9 |
| 20 | Pirque | 05-05-2026 04:45 | 7,6 | 86 | 0 | 0 | 246 | 0,6 | 936,8 |
| 19 | Pirque | 05-05-2026 04:30 | 7,5 | 85,2 | 0 | 0 | 246 | 0,6 | 936,7 |
| 18 | Pirque | 05-05-2026 04:15 | 7,6 | 85,2 | 0 | 0 | 246 | 0,6 | 936,5 |
| 17 | Pirque | 05-05-2026 04:00 | 8 | 83,3 | 0 | 0 | 246 | 0,6 | 936,5 |
| 16 | Pirque | 05-05-2026 03:45 | 7,4 | 84 | 0 | 0 | 246 | 0,6 | 936,4 |
| 15 | Pirque | 05-05-2026 03:30 | 8 | 83,8 | 0 | 0 | 246 | 0,6 | 936,4 |
| 14 | Pirque | 05-05-2026 03:15 | 7,9 | 83,8 | 0 | 0 | 246 | 0,6 | 936,7 |
| 13 | Pirque | 05-05-2026 03:00 | 7,8 | 83,8 | 0 | 0 | 246 | 0,6 | 936,7 |
| 12 | Pirque | 05-05-2026 02:45 | 8,7 | 79,7 | 0 | 0 | 246 | 0,6 | 937 |
| 11 | Pirque | 05-05-2026 02:30 | 8,5 | 81,2 | 0 | 0 | 246 | 0,6 | 937,2 |
| 10 | Pirque | 05-05-2026 02:15 | 8,5 | 82,4 | 0 | 0 | 246 | 0,6 | 937,6 |
| 9 | Pirque | 05-05-2026 02:00 | 7,8 | 83,4 | 0 | 0 | 246 | 0,6 | 938 |
| 8 | Pirque | 05-05-2026 01:45 | 7,9 | 82,1 | 0 | 0 | 246 | 0,6 | 938 |
| 7 | Pirque | 05-05-2026 01:30 | 8,4 | 80,1 | 0 | 0 | 246 | 0,6 | 938,2 |
| 6 | Pirque | 05-05-2026 01:15 | 8,8 | 80,2 | 0 | 0 | 246 | 0,6 | 938,2 |
| 5 | Pirque | 05-05-2026 01:00 | 8,5 | 82 | 0 | 0 | 246 | 0,6 | 938,2 |
| 4 | Pirque | 05-05-2026 00:45 | 9,2 | 78,6 | 0 | 0 | 246 | 0,6 | 938,1 |
| 3 | Pirque | 05-05-2026 00:30 | 8,9 | 80,4 | 0 | 0 | 246 | 0,6 | 938,1 |
| 2 | Pirque | 05-05-2026 00:15 | 8,7 | 82,2 | 0 | 0 | 246 | 0,6 | 938,4 |
| 1 | Pirque | 05-05-2026 00:00 | 7,7 | 84,3 | 0 | 0 | 246 | 0,6 | 938,3 |